{"data":{"norad_id":68798,"intl_designator":"2026-088G","name":"MAGNARO-II","alt_names":[],"object_type":"PAYLOAD","status":"ACTIVE","operator":null,"country":"JPN","launch_date":"2026-04-23","launch_site_code":"RLLB","launch_vehicle":null,"mission":null,"orbit_class":"UNKNOWN","rcs_meters":null,"size_class":null,"mass_kg":null,"dimensions":null,"purposes":[],"wikipedia_slug":null,"has_3d_model":false,"image_url":null,"decayed_at":null,"tle_current":{"epoch":"2026-05-25T00:00:28.154304Z","epoch_age_seconds":71085,"freshness":"FRESH","line1":"1 68798U 26088G   26145.00032586  .00003109  00000+0  20210-3 0  9994","line2":"2 68798  97.5042 294.9448 0019914 156.6558 203.5579 15.08577085  4806","mean_motion":15.08577085,"eccentricity":0.0019914,"inclination_deg":97.5042,"raan_deg":294.9448,"arg_perigee_deg":156.6558,"mean_anomaly_deg":203.5579,"bstar":0.0002021,"rev_number":480,"period_min":95.454187546538,"perigee_km":526.76926406968,"apogee_km":554.32499922922,"semimajor_km":6918.6841316494,"source":"CELESTRAK","updated_at":"2026-05-25T13:38:08.089107Z"}}}